[TLELIST] Archives

 

[list_settings.list_name] Current TLEs

September 18th 2022 PST

HST 1 20580U 90037B 22260.39539122 .00002387 00000-0 12908-3 0 9993 2 20580 28.4698 279.4451 0002259 309.5271 180.2023 15.10879464580139 ISS (ZARYA) 1 25544U 98067A 22261.43569527 .00008126 00000-0 14945-3 0 9997 2 25544 51.6436 234.6096 0002489 265.1909 239.4163 15.50145274359641 CXO 1 25867U 99040B 22263.25085056 .00000985 00000-0 00000+0 0 9997 2 25867 42.7919 227.2859 8913419 239.1155 1.1034 0.37809322 23310 ____________________________________________________________________ These 2-Line ...Continue Reading

[list_settings.list_name] Current TLEs

September 17th 2022 PST

HST 1 20580U 90037B 22260.25475802 .00002406 00000-0 13020-3 0 9990 2 20580 28.4698 280.3774 0002258 307.8097 135.4744 15.10878851580371 ISS (ZARYA) 1 25544U 98067A 22260.33990839 .00027540 00000-0 48646-3 0 9995 2 25544 51.6440 240.0404 0002584 264.4442 241.0983 15.50138426359471 CXO 1 25867U 99040B 22263.24546436 .00000985 00000-0 00000+0 0 9990 2 25867 42.7920 227.2863 8913406 239.1152 0.3699 0.37809382 23314 ____________________________________________________________________ These 2-Line ...Continue Reading

[list_settings.list_name] Current TLEs

September 16th 2022 PST

HST 1 20580U 90037B 22258.81684367 .00002981 00000-0 16390-3 0 9998 2 20580 28.4700 289.9097 0002234 291.3179 235.4069 15.10873420579893 ISS (ZARYA) 1 25544U 98067A 22259.37280527 .00008278 00000-0 15226-3 0 9998 2 25544 51.6445 244.8314 0002565 265.8360 239.2902 15.50112997359320 CXO 1 25867U 99040B 22260.60158151 .00000834 00000-0 00000-0 0 9994 2 25867 42.8536 227.5085 8911193 238.9547 0.4778 0.37809788 12152 ____________________________________________________________________ These 2-Line ...Continue Reading

[list_settings.list_name] Current TLEs

September 15th 2022 PST

HST 1 20580U 90037B 22257.49053503 .00002890 00000-0 15858-3 0 9990 2 20580 28.4701 298.7021 0002206 274.6855 223.7570 15.10866130579698 ISS (ZARYA) 1 25544U 98067A 22258.32873485 .00008862 00000-0 16183-3 0 9995 2 25544 51.6423 250.0020 0002297 234.9336 199.8491 15.50219806359164 CXO 1 25867U 99040B 22260.60063158 .00000834 00000-0 00000-0 0 9996 2 25867 42.8537 227.5087 8911194 238.9547 0.3487 0.37809538 12144 ____________________________________________________________________ These 2-Line ...Continue Reading

[list_settings.list_name] Current TLEs

September 14th 2022 PST

HST 1 20580U 90037B 22257.20998527 .00002806 00000-0 15368-3 0 9996 2 20580 28.4701 300.5618 0002213 271.2094 138.2622 15.10864344579916 ISS (ZARYA) 1 25544U 98067A 22257.37545573 .00008885 00000-0 16232-3 0 9993 2 25544 51.6423 254.7275 0002281 231.4191 279.8267 15.50202213359019 CXO 1 25867U 99040B 22257.95796193 .00000713 00000-0 00000-0 0 9998 2 25867 42.9251 227.7486 8908099 238.7804 0.6206 0.37809469 12131 ____________________________________________________________________ These 2-Line ...Continue Reading

[list_settings.list_name] Current TLEs

September 13th 2022 PST

HST 1 20580U 90037B 22255.84165086 .00002733 00000-0 14940-3 0 9994 2 20580 28.4703 309.6328 0002234 255.0178 257.1774 15.10857093579442 ISS (ZARYA) 1 25544U 98067A 22256.20590916 .00008486 00000-0 15552-3 0 9996 2 25544 51.6422 260.5247 0002272 229.2116 230.8422 15.50179082358830 CXO 1 25867U 99040B 22257.95796193 .00000713 00000-0 00000-0 0 9998 2 25867 42.9251 227.7486 8908099 238.7804 0.6206 0.37809469 12131 ____________________________________________________________________ These 2-Line ...Continue Reading

[list_settings.list_name] Current TLEs

September 12th 2022 PST

HST 1 20580U 90037B 22254.58520347 .00002329 00000-0 12574-3 0 9991 2 20580 28.4706 317.9617 0002277 239.8112 264.9113 15.10849607579527 ISS (ZARYA) 1 25544U 98067A 22255.44343972 .00009940 00000-0 18086-3 0 9990 2 25544 51.6428 264.3038 0002255 225.7654 296.4254 15.50167851358714 CXO 1 25867U 99040B 22255.31504970 .00000716 00000-0 00000-0 0 9999 2 25867 42.9968 227.9797 8902970 238.6184 0.8420 0.37809900 12124 ____________________________________________________________________ These 2-Line ...Continue Reading

[list_settings.list_name] Current TLEs

September 11th 2022 PST

HST 1 20580U 90037B 22253.59443216 .00002324 00000-0 12550-3 0 9999 2 20580 28.4707 324.5294 0002309 227.8715 277.2996 15.10844965579107 ISS (ZARYA) 1 25544U 98067A 22254.35106481 .00007540 00000-0 13926-3 0 9993 2 25544 51.6429 269.7145 0002471 218.6866 323.4109 15.50143602358548 CXO 1 25867U 99040B 22255.31504970 .00000716 00000-0 00000-0 0 9999 2 25867 42.9968 227.9797 8902970 238.6184 0.8420 0.37809900 12124 ____________________________________________________________________ These 2-Line ...Continue Reading

[list_settings.list_name] Current TLEs

September 10th 2022 PST

HST 1 20580U 90037B 22252.60285524 .00002311 00000-0 12473-3 0 9996 2 20580 28.4709 331.1023 0002349 216.3269 284.9192 15.10840404578953 ISS (ZARYA) 1 25544U 98067A 22253.32023148 .00007446 00000-0 13771-3 0 9990 2 25544 51.6430 274.8227 0002495 213.9255 331.8186 15.50126797358380 CXO 1 25867U 99040B 22255.31504970 .00000716 00000-0 00000-0 0 9999 2 25867 42.9968 227.9797 8902970 238.6184 0.8420 0.37809900 12124 ____________________________________________________________________ These 2-Line ...Continue Reading

[list_settings.list_name] Current TLEs

September 9th 2022 PST

HST 1 20580U 90037B 22251.94784765 .00002290 00000-0 12351-3 0 9994 2 20580 28.4710 335.4441 0002371 209.1188 322.4572 15.10837407578859 ISS (ZARYA) 1 25544U 98067A 22252.35420139 .00007420 00000-0 13733-3 0 9993 2 25544 51.6435 279.6094 0002637 209.8921 341.4283 15.50111422358230 CXO 1 25867U 99040B 22255.31360174 .00000716 00000-0 00000+0 0 9994 2 25867 42.9970 227.9799 8902964 238.6184 0.6447 0.37810345 23283 ____________________________________________________________________ These 2-Line ...Continue Reading
  • This mailing list is a public mailing list - anyone may join or leave, at any time.
  • This mailing list is announce-only.

International Space Station (ISS) / Hubble Space Telescope (HST) / Chandra X-Ray Observatory Orbital Data via EMAIL

Privacy Policy:

Private list